Year,Month,Day,Hour,Minute,Value (Times are PST for insolation in W/m^2)
2014,10,06,00,00,0.00
2014,10,06,00,01,0.00
2014,10,06,00,02,0.00
2014,10,06,00,03,0.00
2014,10,06,00,04,0.00
2014,10,06,00,05,0.00
2014,10,06,00,06,0.00
2014,10,06,00,07,0.00
2014,10,06,00,08,0.00
2014,10,06,00,09,0.00
2014,10,06,00,10,0.00
2014,10,06,00,11,0.00
2014,10,06,00,12,0.00
2014,10,06,00,13,0.00
2014,10,06,00,14,0.00
2014,10,06,00,15,0.00
2014,10,06,00,16,0.00
2014,10,06,00,17,0.00
2014,10,06,00,18,0.00
2014,10,06,00,19,0.00
2014,10,06,00,20,0.00
2014,10,06,00,21,0.00
2014,10,06,00,22,0.00
2014,10,06,00,23,0.00
2014,10,06,00,24,0.00
2014,10,06,00,25,0.00
2014,10,06,00,26,0.00
2014,10,06,00,27,0.00
2014,10,06,00,28,0.00
2014,10,06,00,29,0.00
2014,10,06,00,30,0.00
2014,10,06,00,31,0.00
2014,10,06,00,32,0.00
2014,10,06,00,33,0.00
2014,10,06,00,34,0.00
2014,10,06,00,35,0.00
2014,10,06,00,36,0.00
2014,10,06,00,37,0.00
2014,10,06,00,38,0.00
2014,10,06,00,39,0.00
2014,10,06,00,40,0.00
2014,10,06,00,41,0.00
2014,10,06,00,42,0.00
2014,10,06,00,43,0.00
2014,10,06,00,44,0.00
2014,10,06,00,45,0.00
2014,10,06,00,46,0.00
2014,10,06,00,47,0.00
2014,10,06,00,48,0.00
2014,10,06,00,49,0.00
2014,10,06,00,50,0.00
2014,10,06,00,51,0.00
2014,10,06,00,52,0.00
2014,10,06,00,53,0.00
2014,10,06,00,54,0.00
2014,10,06,00,55,0.00
2014,10,06,00,56,0.00
2014,10,06,00,57,0.00
2014,10,06,00,58,0.00
2014,10,06,00,59,0.00
2014,10,06,01,00,0.00
2014,10,06,01,01,0.00
2014,10,06,01,02,0.00
2014,10,06,01,03,0.00
2014,10,06,01,04,0.00
2014,10,06,01,05,0.00
2014,10,06,01,06,0.00
2014,10,06,01,07,0.00
2014,10,06,01,08,0.00
2014,10,06,01,09,0.00
2014,10,06,01,10,0.00
2014,10,06,01,11,0.00
2014,10,06,01,12,0.00
2014,10,06,01,13,0.00
2014,10,06,01,14,0.00
2014,10,06,01,15,0.00
2014,10,06,01,16,0.00
2014,10,06,01,17,0.00
2014,10,06,01,18,0.00
2014,10,06,01,19,0.00
2014,10,06,01,20,0.00
2014,10,06,01,21,0.00
2014,10,06,01,22,0.00
2014,10,06,01,23,0.00
2014,10,06,01,24,0.00
2014,10,06,01,25,0.00
2014,10,06,01,26,0.00
2014,10,06,01,27,0.00
2014,10,06,01,28,0.00
2014,10,06,01,29,0.00
2014,10,06,01,30,0.00
2014,10,06,01,31,0.00
2014,10,06,01,32,0.00
2014,10,06,01,33,0.00
2014,10,06,01,34,0.00
2014,10,06,01,35,0.00
2014,10,06,01,36,0.00
2014,10,06,01,37,0.00
2014,10,06,01,38,0.00
2014,10,06,01,39,0.00
2014,10,06,01,40,0.00
2014,10,06,01,41,0.00
2014,10,06,01,42,0.00
2014,10,06,01,43,0.00
2014,10,06,01,44,0.00
2014,10,06,01,45,0.00
2014,10,06,01,46,0.00
2014,10,06,01,47,0.00
2014,10,06,01,48,0.00
2014,10,06,01,49,0.00
2014,10,06,01,50,0.00
2014,10,06,01,51,0.00
2014,10,06,01,52,0.00
2014,10,06,01,53,0.00
2014,10,06,01,54,0.00
2014,10,06,01,55,0.00
2014,10,06,01,56,0.00
2014,10,06,01,57,0.00
2014,10,06,01,58,0.00
2014,10,06,01,59,0.00
2014,10,06,02,00,0.00
2014,10,06,02,01,0.00
2014,10,06,02,02,0.00
2014,10,06,02,03,0.00
2014,10,06,02,04,0.00
2014,10,06,02,05,0.00
2014,10,06,02,06,0.00
2014,10,06,02,07,0.00
2014,10,06,02,08,0.00
2014,10,06,02,09,0.00
2014,10,06,02,10,0.00
2014,10,06,02,11,0.00
2014,10,06,02,12,0.00
2014,10,06,02,13,0.00
2014,10,06,02,14,0.00
2014,10,06,02,15,0.00
2014,10,06,02,16,0.00
2014,10,06,02,17,0.00
2014,10,06,02,18,0.00
2014,10,06,02,19,0.00
2014,10,06,02,20,0.00
2014,10,06,02,21,0.00
2014,10,06,02,22,0.00
2014,10,06,02,23,0.00
2014,10,06,02,24,0.00
2014,10,06,02,25,0.00
2014,10,06,02,26,0.00
2014,10,06,02,27,0.00
2014,10,06,02,28,0.00
2014,10,06,02,29,0.00
2014,10,06,02,30,0.00
2014,10,06,02,31,0.00
2014,10,06,02,32,0.00
2014,10,06,02,33,0.00
2014,10,06,02,34,0.00
2014,10,06,02,35,0.00
2014,10,06,02,36,0.00
2014,10,06,02,37,0.00
2014,10,06,02,38,0.00
2014,10,06,02,39,0.00
2014,10,06,02,40,0.00
2014,10,06,02,41,0.00
2014,10,06,02,42,0.00
2014,10,06,02,43,0.00
2014,10,06,02,44,0.00
2014,10,06,02,45,0.00
2014,10,06,02,46,0.00
2014,10,06,02,47,0.00
2014,10,06,02,48,0.00
2014,10,06,02,49,0.00
2014,10,06,02,50,0.00
2014,10,06,02,51,0.00
2014,10,06,02,52,0.00
2014,10,06,02,53,0.00
2014,10,06,02,54,0.00
2014,10,06,02,55,0.00
2014,10,06,02,56,0.00
2014,10,06,02,57,0.00
2014,10,06,02,58,0.00
2014,10,06,02,59,0.00
2014,10,06,03,00,0.00
2014,10,06,03,01,0.00
2014,10,06,03,02,0.00
2014,10,06,03,06,0.00
2014,10,06,03,07,0.00
2014,10,06,03,08,0.00
2014,10,06,03,09,0.00
2014,10,06,03,10,0.00
2014,10,06,03,11,0.00
2014,10,06,03,12,0.00
2014,10,06,03,13,0.00
2014,10,06,03,14,0.00
2014,10,06,03,15,0.00
2014,10,06,03,16,0.00
2014,10,06,03,17,0.00
2014,10,06,03,18,0.00
2014,10,06,03,19,0.00
2014,10,06,03,20,0.00
2014,10,06,03,21,0.00
2014,10,06,03,22,0.00
2014,10,06,03,23,0.00
2014,10,06,03,24,0.00
2014,10,06,03,25,0.00
2014,10,06,03,26,0.00
2014,10,06,03,27,0.00
2014,10,06,03,28,0.00
2014,10,06,03,29,0.00
2014,10,06,03,30,0.00
2014,10,06,03,31,0.00
2014,10,06,03,32,0.00
2014,10,06,03,33,0.00
2014,10,06,03,34,0.00
2014,10,06,03,35,0.00
2014,10,06,03,36,0.00
2014,10,06,03,37,0.00
2014,10,06,03,38,0.00
2014,10,06,03,39,0.00
2014,10,06,03,40,0.00
2014,10,06,03,41,0.00
2014,10,06,03,42,0.00
2014,10,06,03,43,0.00
2014,10,06,03,44,0.00
2014,10,06,03,45,0.00
2014,10,06,03,46,0.00
2014,10,06,03,47,0.00
2014,10,06,03,48,0.00
2014,10,06,03,49,0.00
2014,10,06,03,50,0.00
2014,10,06,03,51,0.00
2014,10,06,03,52,0.00
2014,10,06,03,53,0.00
2014,10,06,03,54,0.00
2014,10,06,03,55,0.00
2014,10,06,03,56,0.00
2014,10,06,03,57,0.00
2014,10,06,03,58,0.00
2014,10,06,03,59,0.00
2014,10,06,04,00,0.00
2014,10,06,04,01,0.00
2014,10,06,04,02,0.00
2014,10,06,04,03,0.00
2014,10,06,04,04,0.00
2014,10,06,04,05,0.00
2014,10,06,04,06,0.00
2014,10,06,04,07,0.00
2014,10,06,04,08,0.00
2014,10,06,04,09,0.00
2014,10,06,04,10,0.00
2014,10,06,04,11,0.00
2014,10,06,04,12,0.00
2014,10,06,04,13,0.00
2014,10,06,04,14,0.00
2014,10,06,04,15,0.00
2014,10,06,04,16,0.00
2014,10,06,04,17,0.00
2014,10,06,04,18,0.00
2014,10,06,04,19,0.00
2014,10,06,04,20,0.00
2014,10,06,04,21,0.00
2014,10,06,04,22,0.00
2014,10,06,04,23,0.00
2014,10,06,04,24,0.00
2014,10,06,04,25,0.00
2014,10,06,04,26,0.00
2014,10,06,04,27,0.00
2014,10,06,04,28,0.00
2014,10,06,04,29,0.00
2014,10,06,04,30,0.00
2014,10,06,04,31,0.00
2014,10,06,04,32,0.00
2014,10,06,04,33,0.00
2014,10,06,04,34,0.00
2014,10,06,04,35,0.00
2014,10,06,04,36,0.00
2014,10,06,04,37,0.00
2014,10,06,04,38,0.00
2014,10,06,04,39,0.00
2014,10,06,04,40,0.00
2014,10,06,04,41,0.00
2014,10,06,04,42,0.00
2014,10,06,04,43,0.00
2014,10,06,04,44,0.00
2014,10,06,04,45,0.00
2014,10,06,04,46,0.00
2014,10,06,04,47,0.00
2014,10,06,04,48,0.00
2014,10,06,04,49,0.00
2014,10,06,04,50,0.00
2014,10,06,04,51,0.00
2014,10,06,04,52,0.00
2014,10,06,04,53,0.00
2014,10,06,04,54,0.00
2014,10,06,04,55,0.00
2014,10,06,04,56,0.00
2014,10,06,04,57,0.00
2014,10,06,04,58,0.00
2014,10,06,04,59,0.00
2014,10,06,05,00,0.00
2014,10,06,05,01,0.00
2014,10,06,05,02,0.00
2014,10,06,05,03,0.00
2014,10,06,05,04,0.00
2014,10,06,05,05,0.00
2014,10,06,05,06,0.00
2014,10,06,05,07,0.00
2014,10,06,05,08,0.00
2014,10,06,05,09,0.00
2014,10,06,05,10,0.00
2014,10,06,05,11,0.00
2014,10,06,05,12,0.00
2014,10,06,05,13,0.00
2014,10,06,05,14,0.00
2014,10,06,05,15,0.00
2014,10,06,05,16,0.00
2014,10,06,05,17,0.00
2014,10,06,05,18,0.00
2014,10,06,05,19,0.00
2014,10,06,05,20,0.00
2014,10,06,05,21,0.00
2014,10,06,05,22,0.00
2014,10,06,05,23,0.00
2014,10,06,05,24,0.00
2014,10,06,05,25,0.00
2014,10,06,05,26,0.00
2014,10,06,05,27,0.00
2014,10,06,05,28,0.00
2014,10,06,05,29,0.00
2014,10,06,05,30,0.00
2014,10,06,05,31,0.00
2014,10,06,05,32,0.00
2014,10,06,05,33,0.00
2014,10,06,05,34,0.00
2014,10,06,05,35,0.00
2014,10,06,05,36,0.00
2014,10,06,05,37,0.00
2014,10,06,05,38,0.00
2014,10,06,05,39,0.00
2014,10,06,05,40,0.00
2014,10,06,05,41,0.00
2014,10,06,05,42,0.00
2014,10,06,05,43,0.00
2014,10,06,05,44,0.00
2014,10,06,05,45,0.00
2014,10,06,05,46,0.00
2014,10,06,05,47,0.00
2014,10,06,05,48,0.00
2014,10,06,05,49,0.00
2014,10,06,05,50,0.00
2014,10,06,05,51,0.00
2014,10,06,05,52,0.00
2014,10,06,05,53,0.00
2014,10,06,05,54,0.00
2014,10,06,05,55,0.00
2014,10,06,05,56,0.00
2014,10,06,05,57,0.00
2014,10,06,05,58,0.00
2014,10,06,05,59,0.00
2014,10,06,06,00,0.00
2014,10,06,06,01,0.00
2014,10,06,06,02,0.00
2014,10,06,06,03,0.00
2014,10,06,06,04,0.00
2014,10,06,06,05,0.00
2014,10,06,06,06,0.00
2014,10,06,06,07,0.00
2014,10,06,06,08,0.00
2014,10,06,06,09,0.00
2014,10,06,06,10,0.00
2014,10,06,06,11,0.00
2014,10,06,06,12,0.00
2014,10,06,06,13,0.00
2014,10,06,06,14,0.00
2014,10,06,06,15,0.00
2014,10,06,06,16,0.00
2014,10,06,06,17,0.00
2014,10,06,06,18,0.00
2014,10,06,06,19,0.00
2014,10,06,06,20,0.00
2014,10,06,06,21,0.00
2014,10,06,06,22,0.00
2014,10,06,06,23,0.00
2014,10,06,06,24,0.00
2014,10,06,06,25,0.00
2014,10,06,06,26,0.00
2014,10,06,06,27,0.00
2014,10,06,06,28,0.00
2014,10,06,06,29,0.00
2014,10,06,06,30,0.00
2014,10,06,06,31,0.00
2014,10,06,06,32,0.00
2014,10,06,06,33,0.00
2014,10,06,06,34,0.00
2014,10,06,06,35,0.00
2014,10,06,06,36,0.00
2014,10,06,06,37,0.00
2014,10,06,06,38,0.00
2014,10,06,06,39,0.00
2014,10,06,06,40,0.00
2014,10,06,06,41,0.00
2014,10,06,06,42,0.00
2014,10,06,06,43,0.00
2014,10,06,06,44,0.00
2014,10,06,06,45,0.00
2014,10,06,06,46,0.00
2014,10,06,06,47,0.00
2014,10,06,06,48,0.00
2014,10,06,06,49,0.00
2014,10,06,06,50,0.00
2014,10,06,06,51,0.00
2014,10,06,06,52,0.00
2014,10,06,06,53,0.00
2014,10,06,06,54,0.00
2014,10,06,06,55,0.00
2014,10,06,06,56,0.00
2014,10,06,06,57,0.00
2014,10,06,06,58,0.00
2014,10,06,06,59,0.00
2014,10,06,07,00,0.00
2014,10,06,07,01,0.00
2014,10,06,07,02,0.00
2014,10,06,07,03,0.00
2014,10,06,07,04,0.00
2014,10,06,07,05,0.00
2014,10,06,07,06,0.00
2014,10,06,07,07,0.00
2014,10,06,07,08,0.00
2014,10,06,07,09,0.00
2014,10,06,07,10,0.00
2014,10,06,07,11,0.00
2014,10,06,07,12,0.00
2014,10,06,07,13,0.00
2014,10,06,07,14,0.00
2014,10,06,07,15,0.00
2014,10,06,07,16,0.00
2014,10,06,07,17,0.00
2014,10,06,07,18,0.00
2014,10,06,07,19,0.00
2014,10,06,07,20,0.00
2014,10,06,07,21,0.00
2014,10,06,07,22,0.00
2014,10,06,07,23,0.00
2014,10,06,07,24,0.00
2014,10,06,07,25,0.00
2014,10,06,07,26,0.00
2014,10,06,07,27,0.00
2014,10,06,07,28,0.00
2014,10,06,07,29,0.00
2014,10,06,07,30,0.00
2014,10,06,07,31,0.00
2014,10,06,07,32,0.00
2014,10,06,07,33,0.00
2014,10,06,07,34,0.00
2014,10,06,07,35,0.00
2014,10,06,07,36,0.00
2014,10,06,07,37,0.00
2014,10,06,07,38,3.60
2014,10,06,07,39,5.00
2014,10,06,07,40,5.00
2014,10,06,07,41,5.00
2014,10,06,07,42,5.00
2014,10,06,07,43,5.00
2014,10,06,07,44,5.00
2014,10,06,07,45,5.00
2014,10,06,07,46,5.00
2014,10,06,07,47,5.00
2014,10,06,07,48,5.80
2014,10,06,07,49,7.00
2014,10,06,07,50,7.00
2014,10,06,07,51,8.20
2014,10,06,07,52,10.30
2014,10,06,07,53,11.00
2014,10,06,07,54,11.00
2014,10,06,07,55,11.90
2014,10,06,07,56,12.00
2014,10,06,07,57,13.90
2014,10,06,07,58,14.20
2014,10,06,07,59,15.70
2014,10,06,08,00,14.00
2014,10,06,08,01,14.00
2014,10,06,08,02,14.00
2014,10,06,08,03,14.00
2014,10,06,08,04,14.00
2014,10,06,08,05,14.00
2014,10,06,08,06,14.00
2014,10,06,08,07,12.80
2014,10,06,08,08,12.00
2014,10,06,08,09,12.00
2014,10,06,08,10,13.70
2014,10,06,08,11,15.80
2014,10,06,08,12,15.90
2014,10,06,08,13,14.00
2014,10,06,08,14,14.00
2014,10,06,08,15,14.40
2014,10,06,08,16,16.00
2014,10,06,08,17,16.00
2014,10,06,08,18,16.00
2014,10,06,08,19,16.00
2014,10,06,08,20,17.00
2014,10,06,08,21,18.00
2014,10,06,08,22,18.00
2014,10,06,08,23,18.70
2014,10,06,08,24,20.50
2014,10,06,08,25,22.60
2014,10,06,08,26,23.00
2014,10,06,08,27,24.90
2014,10,06,08,28,25.10
2014,10,06,08,29,26.00
2014,10,06,08,30,26.00
2014,10,06,08,31,25.80
2014,10,06,08,32,25.00
2014,10,06,08,33,25.40
2014,10,06,08,34,26.00
2014,10,06,08,35,28.10
2014,10,06,08,36,31.10
2014,10,06,08,37,32.00
2014,10,06,08,38,30.60
2014,10,06,08,39,27.00
2014,10,06,08,40,26.00
2014,10,06,08,41,25.10
2014,10,06,08,42,25.00
2014,10,06,08,43,25.00
2014,10,06,08,44,25.50
2014,10,06,08,45,28.50
2014,10,06,08,46,30.00
2014,10,06,08,47,30.70
2014,10,06,08,48,33.30
2014,10,06,08,49,35.00
2014,10,06,08,50,34.00
2014,10,06,08,51,33.00
2014,10,06,08,52,32.30
2014,10,06,08,53,30.60
2014,10,06,08,54,30.00
2014,10,06,08,55,31.70
2014,10,06,08,56,32.90
2014,10,06,08,57,39.00
2014,10,06,08,58,44.70
2014,10,06,08,59,51.70
2014,10,06,09,00,57.40
2014,10,06,09,01,63.40
2014,10,06,09,02,68.00
2014,10,06,09,03,68.80
2014,10,06,09,04,65.10
2014,10,06,09,05,63.00
2014,10,06,09,06,62.40
2014,10,06,09,07,60.70
2014,10,06,09,08,60.00
2014,10,06,09,09,60.00
2014,10,06,09,10,60.00
2014,10,06,09,11,62.70
2014,10,06,09,12,66.80
2014,10,06,09,13,70.00
2014,10,06,09,14,68.70
2014,10,06,09,15,66.20
2014,10,06,09,16,61.80
2014,10,06,09,17,57.30
2014,10,06,09,18,56.00
2014,10,06,09,19,55.10
2014,10,06,09,20,54.00
2014,10,06,09,21,52.30
2014,10,06,09,22,47.90
2014,10,06,09,23,44.60
2014,10,06,09,24,45.50
2014,10,06,09,25,46.80
2014,10,06,09,26,50.60
2014,10,06,09,27,52.90
2014,10,06,09,28,54.20
2014,10,06,09,29,56.60
2014,10,06,09,30,60.40
2014,10,06,09,31,62.80
2014,10,06,09,32,65.60
2014,10,06,09,33,67.00
2014,10,06,09,34,67.00
2014,10,06,09,35,66.00
2014,10,06,09,36,65.00
2014,10,06,09,37,67.50
2014,10,06,09,38,71.10
2014,10,06,09,39,75.80
2014,10,06,09,40,80.20
2014,10,06,09,41,82.70
2014,10,06,09,42,83.00
2014,10,06,09,43,82.60
2014,10,06,09,44,78.70
2014,10,06,09,45,77.40
2014,10,06,09,46,80.10
2014,10,06,09,47,83.00
2014,10,06,09,48,83.40
2014,10,06,09,49,84.90
2014,10,06,09,50,86.00
2014,10,06,09,51,84.90
2014,10,06,09,52,85.30
2014,10,06,09,53,88.80
2014,10,06,09,54,90.80
2014,10,06,09,55,94.30
2014,10,06,09,56,96.80
2014,10,06,09,57,93.20
2014,10,06,09,58,85.50
2014,10,06,09,59,80.70
2014,10,06,10,00,79.00
2014,10,06,10,01,79.50
2014,10,06,10,02,81.60
2014,10,06,10,03,83.40
2014,10,06,10,04,84.90
2014,10,06,10,05,88.00
2014,10,06,10,06,92.90
2014,10,06,10,07,98.10
2014,10,06,10,08,102.90
2014,10,06,10,09,106.30
2014,10,06,10,10,107.00
2014,10,06,10,11,107.00
2014,10,06,10,12,107.00
2014,10,06,10,13,109.20
2014,10,06,10,14,111.30
2014,10,06,10,15,113.60
2014,10,06,10,16,116.00
2014,10,06,10,17,116.70
2014,10,06,10,18,118.00
2014,10,06,10,19,119.40
2014,10,06,10,20,123.10
2014,10,06,10,21,127.90
2014,10,06,10,22,132.50
2014,10,06,10,23,134.70
2014,10,06,10,24,138.00
2014,10,06,10,25,139.00
2014,10,06,10,26,135.40
2014,10,06,10,27,132.10
2014,10,06,10,28,129.80
2014,10,06,10,29,128.00
2014,10,06,10,30,128.00
2014,10,06,10,31,129.00
2014,10,06,10,32,133.00
2014,10,06,10,33,136.60
2014,10,06,10,34,139.90
2014,10,06,10,35,141.50
2014,10,06,10,36,144.30
2014,10,06,10,37,147.20
2014,10,06,10,38,148.70
2014,10,06,10,39,152.00
2014,10,06,10,40,154.60
2014,10,06,10,41,155.00
2014,10,06,10,42,155.90
2014,10,06,10,43,155.90
2014,10,06,10,44,155.00
2014,10,06,10,45,154.20
2014,10,06,10,46,150.50
2014,10,06,10,47,148.60
2014,10,06,10,48,147.20
2014,10,06,10,49,146.00
2014,10,06,10,50,147.00
2014,10,06,10,51,148.00
2014,10,06,10,52,148.60
2014,10,06,10,53,150.40
2014,10,06,10,54,152.50
2014,10,06,10,55,155.40
2014,10,06,10,56,161.40
2014,10,06,10,57,166.80
2014,10,06,10,58,174.30
2014,10,06,10,59,182.00
2014,10,06,11,00,189.30
2014,10,06,11,01,196.20
2014,10,06,11,02,200.60
2014,10,06,11,03,202.00
2014,10,06,11,04,201.10
2014,10,06,11,05,199.50
2014,10,06,11,06,199.00
2014,10,06,11,07,199.00
2014,10,06,11,08,199.70
2014,10,06,11,09,197.70
2014,10,06,11,10,195.40
2014,10,06,11,11,192.40
2014,10,06,11,12,190.10
2014,10,06,11,13,190.10
2014,10,06,11,14,193.30
2014,10,06,11,15,195.00
2014,10,06,11,16,193.80
2014,10,06,11,17,188.80
2014,10,06,11,18,186.70
2014,10,06,11,19,190.10
2014,10,06,11,20,197.50
2014,10,06,11,21,207.10
2014,10,06,11,22,212.90
2014,10,06,11,23,214.00
2014,10,06,11,24,210.20
2014,10,06,11,25,201.00
2014,10,06,11,26,187.80
2014,10,06,11,27,176.50
2014,10,06,11,28,168.70
2014,10,06,11,29,163.00
2014,10,06,11,30,163.40
2014,10,06,11,31,165.50
2014,10,06,11,32,168.30
2014,10,06,11,33,171.40
2014,10,06,11,34,173.70
2014,10,06,11,35,177.00
2014,10,06,11,36,178.60
2014,10,06,11,37,180.20
2014,10,06,11,38,182.30
2014,10,06,11,39,184.50
2014,10,06,11,40,185.00
2014,10,06,11,41,185.90
2014,10,06,11,42,187.90
2014,10,06,11,43,188.40
2014,10,06,11,44,197.50
2014,10,06,11,45,202.40
2014,10,06,11,46,204.50
2014,10,06,11,47,206.30
2014,10,06,11,48,208.50
2014,10,06,11,49,211.00
2014,10,06,11,50,211.00
2014,10,06,11,51,211.00
2014,10,06,11,52,211.00
2014,10,06,11,53,238.30
2014,10,06,11,54,255.60
2014,10,06,11,55,261.00
2014,10,06,11,56,264.70
2014,10,06,11,57,265.00
2014,10,06,11,58,267.10
2014,10,06,11,59,269.70
2014,10,06,12,00,274.80
2014,10,06,12,01,278.20
2014,10,06,12,02,279.00
2014,10,06,12,03,279.00
2014,10,06,12,04,278.60
2014,10,06,12,05,277.00
2014,10,06,12,06,274.90
2014,10,06,12,07,274.00
2014,10,06,12,08,274.00
2014,10,06,12,09,276.90
2014,10,06,12,10,278.80
2014,10,06,12,11,284.10
2014,10,06,12,12,289.50
2014,10,06,12,13,295.20
2014,10,06,12,14,299.30
2014,10,06,12,15,302.70
2014,10,06,12,16,305.50
2014,10,06,12,17,302.60
2014,10,06,12,18,296.50
2014,10,06,12,19,289.90
2014,10,06,12,20,285.10
2014,10,06,12,21,281.90
2014,10,06,12,22,281.00
2014,10,06,12,23,281.00
2014,10,06,12,24,281.00
2014,10,06,12,25,285.90
2014,10,06,12,26,293.00
2014,10,06,12,27,300.30
2014,10,06,12,28,303.90
2014,10,06,12,29,300.30
2014,10,06,12,30,292.00
2014,10,06,12,31,281.30
2014,10,06,12,32,274.90
2014,10,06,12,33,271.60
2014,10,06,12,34,271.00
2014,10,06,12,35,270.10
2014,10,06,12,36,265.30
2014,10,06,12,37,256.40
2014,10,06,12,38,249.70
2014,10,06,12,39,246.50
2014,10,06,12,40,246.00
2014,10,06,12,41,249.40
2014,10,06,12,42,254.50
2014,10,06,12,43,258.30
2014,10,06,12,44,264.10
2014,10,06,12,45,265.00
2014,10,06,12,46,265.00
2014,10,06,12,47,264.70
2014,10,06,12,48,263.30
2014,10,06,12,49,262.00
2014,10,06,12,50,261.00
2014,10,06,12,51,260.00
2014,10,06,12,52,258.80
2014,10,06,12,53,259.30
2014,10,06,12,54,260.00
2014,10,06,12,55,261.60
2014,10,06,12,56,262.00
2014,10,06,12,57,262.00
2014,10,06,12,58,261.90
2014,10,06,12,59,259.70
2014,10,06,13,00,256.30
2014,10,06,13,01,252.50
2014,10,06,13,02,250.70
2014,10,06,13,03,248.50
2014,10,06,13,04,244.60
2014,10,06,13,05,241.10
2014,10,06,13,06,237.90
2014,10,06,13,07,236.40
2014,10,06,13,08,236.00
2014,10,06,13,09,236.00
2014,10,06,13,10,236.00
2014,10,06,13,11,236.00
2014,10,06,13,12,245.00
2014,10,06,13,13,251.00
2014,10,06,13,14,257.30
2014,10,06,13,15,260.70
2014,10,06,13,16,265.80
2014,10,06,13,17,269.90
2014,10,06,13,18,272.70
2014,10,06,13,19,274.00
2014,10,06,13,20,275.00
2014,10,06,13,21,276.00
2014,10,06,13,22,277.20
2014,10,06,13,23,280.00
2014,10,06,13,24,285.30
2014,10,06,13,25,290.90
2014,10,06,13,26,296.30
2014,10,06,13,27,298.80
2014,10,06,13,28,299.00
2014,10,06,13,29,299.00
2014,10,06,13,30,299.30
2014,10,06,13,31,301.00
2014,10,06,13,32,301.30
2014,10,06,13,33,302.00
2014,10,06,13,34,302.80
2014,10,06,13,35,304.00
2014,10,06,13,36,305.10
2014,10,06,13,37,306.00
2014,10,06,13,38,306.00
2014,10,06,13,39,306.00
2014,10,06,13,40,306.00
2014,10,06,13,41,308.70
2014,10,06,13,42,312.60
2014,10,06,13,43,318.00
2014,10,06,13,44,323.40
2014,10,06,13,45,327.40
2014,10,06,13,46,331.80
2014,10,06,13,47,337.40
2014,10,06,13,48,336.00
2014,10,06,13,49,336.80
2014,10,06,13,50,340.40
2014,10,06,13,51,351.40
2014,10,06,13,52,374.40
2014,10,06,13,53,380.30
2014,10,06,13,54,383.00
2014,10,06,13,55,376.50
2014,10,06,13,56,385.10
2014,10,06,13,57,416.70
2014,10,06,13,58,468.80
2014,10,06,13,59,394.20
2014,10,06,14,00,396.40
2014,10,06,14,01,388.50
2014,10,06,14,02,347.30
2014,10,06,14,03,331.00
2014,10,06,14,04,324.20
2014,10,06,14,05,324.90
2014,10,06,14,06,330.70
2014,10,06,14,07,337.00
2014,10,06,14,08,341.70
2014,10,06,14,09,338.00
2014,10,06,14,10,354.30
2014,10,06,14,11,367.70
2014,10,06,14,12,369.00
2014,10,06,14,13,389.60
2014,10,06,14,14,359.80
2014,10,06,14,15,337.70
2014,10,06,14,16,328.40
2014,10,06,14,17,320.90
2014,10,06,14,18,319.10
2014,10,06,14,19,321.30
2014,10,06,14,20,315.50
2014,10,06,14,21,310.00
2014,10,06,14,22,304.80
2014,10,06,14,23,305.30
2014,10,06,14,24,306.00
2014,10,06,14,25,307.60
2014,10,06,14,26,308.90
2014,10,06,14,27,310.80
2014,10,06,14,28,315.00
2014,10,06,14,29,299.00
2014,10,06,14,30,300.30
2014,10,06,14,31,312.90
2014,10,06,14,32,349.60
2014,10,06,14,33,389.70
2014,10,06,14,34,400.80
2014,10,06,14,35,369.40
2014,10,06,14,36,365.30
2014,10,06,14,37,342.00
2014,10,06,14,38,324.00
2014,10,06,14,39,342.50
2014,10,06,14,40,369.80
2014,10,06,14,41,396.50
2014,10,06,14,42,401.00
2014,10,06,14,43,419.10
2014,10,06,14,44,426.20
2014,10,06,14,45,488.00
2014,10,06,14,46,533.10
2014,10,06,14,47,592.30
2014,10,06,14,48,657.00
2014,10,06,14,49,626.10
2014,10,06,14,50,569.10
2014,10,06,14,51,526.40
2014,10,06,14,52,520.00
2014,10,06,14,53,425.30
2014,10,06,14,54,421.60
2014,10,06,14,55,442.10
2014,10,06,14,56,377.00
2014,10,06,14,57,351.50
2014,10,06,14,58,314.00
2014,10,06,14,59,296.80
2014,10,06,15,00,295.00
2014,10,06,15,01,295.00
2014,10,06,15,02,295.00
2014,10,06,15,03,324.60
2014,10,06,15,04,391.40
2014,10,06,15,05,415.00
2014,10,06,15,06,389.80
2014,10,06,15,07,345.00
2014,10,06,15,08,329.10
2014,10,06,15,09,327.10
2014,10,06,15,10,324.60
2014,10,06,15,11,336.60
2014,10,06,15,12,339.00
2014,10,06,15,13,574.00
2014,10,06,15,14,606.50
2014,10,06,15,15,590.60
2014,10,06,15,16,580.00
2014,10,06,15,17,567.90
2014,10,06,15,18,538.00
2014,10,06,15,19,504.80
2014,10,06,15,20,501.20
2014,10,06,15,21,498.60
2014,10,06,15,22,496.90
2014,10,06,15,23,489.30
2014,10,06,15,24,484.10
2014,10,06,15,25,482.20
2014,10,06,15,26,484.60
2014,10,06,15,27,488.60
2014,10,06,15,28,491.90
2014,10,06,15,29,496.80
2014,10,06,15,30,506.20
2014,10,06,15,31,521.00
2014,10,06,15,32,530.10
2014,10,06,15,33,511.70
2014,10,06,15,34,440.40
2014,10,06,15,35,353.80
2014,10,06,15,36,341.70
2014,10,06,15,37,376.00
2014,10,06,15,38,259.60
2014,10,06,15,39,192.00
2014,10,06,15,40,188.50
2014,10,06,15,41,185.40
2014,10,06,15,42,185.00
2014,10,06,15,43,183.10
2014,10,06,15,44,183.20
2014,10,06,15,45,185.10
2014,10,06,15,46,186.00
2014,10,06,15,47,184.60
2014,10,06,15,48,177.70
2014,10,06,15,49,165.30
2014,10,06,15,50,156.90
2014,10,06,15,51,159.00
2014,10,06,15,52,160.00
2014,10,06,15,53,156.20
2014,10,06,15,54,151.60
2014,10,06,15,55,151.00
2014,10,06,15,56,152.60
2014,10,06,15,57,155.70
2014,10,06,15,58,161.70
2014,10,06,15,59,167.40
2014,10,06,16,00,171.10
2014,10,06,16,01,171.80
2014,10,06,16,02,170.50
2014,10,06,16,03,167.00
2014,10,06,16,04,160.20
2014,10,06,16,05,153.00
2014,10,06,16,06,146.40
2014,10,06,16,07,144.00
2014,10,06,16,08,147.20
2014,10,06,16,09,159.00
2014,10,06,16,10,163.00
2014,10,06,16,11,308.60
2014,10,06,16,12,377.00
2014,10,06,16,13,371.00
2014,10,06,16,14,359.20
2014,10,06,16,15,351.00
2014,10,06,16,16,331.80
2014,10,06,16,17,277.90
2014,10,06,16,18,265.70
2014,10,06,16,19,300.30
2014,10,06,16,20,298.80
2014,10,06,16,21,267.30
2014,10,06,16,22,264.00
2014,10,06,16,23,273.30
2014,10,06,16,24,241.60
2014,10,06,16,25,206.40
2014,10,06,16,26,214.70
2014,10,06,16,27,241.50
2014,10,06,16,28,230.70
2014,10,06,16,29,255.20
2014,10,06,16,30,236.60
2014,10,06,16,31,235.90
2014,10,06,16,32,254.10
2014,10,06,16,33,284.70
2014,10,06,16,34,292.80
2014,10,06,16,35,294.00
2014,10,06,16,36,293.00
2014,10,06,16,37,289.70
2014,10,06,16,38,287.40
2014,10,06,16,39,285.60
2014,10,06,16,40,282.00
2014,10,06,16,41,279.40
2014,10,06,16,42,276.30
2014,10,06,16,43,274.10
2014,10,06,16,44,271.70
2014,10,06,16,45,268.70
2014,10,06,16,46,266.60
2014,10,06,16,47,264.30
2014,10,06,16,48,260.70
2014,10,06,16,49,257.60
2014,10,06,16,50,255.20
2014,10,06,16,51,252.00
2014,10,06,16,52,249.30
2014,10,06,16,53,246.80
2014,10,06,16,54,244.60
2014,10,06,16,55,243.20
2014,10,06,16,56,239.70
2014,10,06,16,57,237.20
2014,10,06,16,58,236.00
2014,10,06,16,59,231.90
2014,10,06,17,00,229.60
2014,10,06,17,01,226.60
2014,10,06,17,02,223.90
2014,10,06,17,03,220.70
2014,10,06,17,04,218.50
2014,10,06,17,05,215.10
2014,10,06,17,06,212.40
2014,10,06,17,07,211.00
2014,10,06,17,08,211.00
2014,10,06,17,09,211.00
2014,10,06,17,10,202.60
2014,10,06,17,11,197.50
2014,10,06,17,12,193.40
2014,10,06,17,13,190.10
2014,10,06,17,14,187.70
2014,10,06,17,15,184.40
2014,10,06,17,16,180.40
2014,10,06,17,17,176.90
2014,10,06,17,18,172.30
2014,10,06,17,19,168.20
2014,10,06,17,20,166.10
2014,10,06,17,21,161.30
2014,10,06,17,22,156.30
2014,10,06,17,23,155.60